User: anonymous   Login
Location: Bun Machan
(52.1403°N, 7.3744°W)
Time: 00:22:41
(UTC+00:00)
Language:

IRS-P3 - Orbit

View from above orbital plane
View from above orbital plane
View from above satellite
View from above satellite

Ground track
Ground track

The orbit data is extracted from the following two-line orbital elements,

1 23827U 96017A   20271.87371307  .00000009  00000-0  24102-4 0  9995
2 23827  98.8556 221.2799 0003514 159.9465 200.1851 14.22626210272834
Epoch (UTC): 27 September 2020 20:58:08
Eccentricity: 0.0003514
inclination: 98.8556°
perigee height: 814 km
apogee height: 819 km
right ascension of ascending node: 221.2799°
argument of perigee: 159.9465°
revolutions per day: 14.22626210
mean anomaly at epoch: 200.1851°
orbit number at epoch: 27283

The dashed part of the orbit path shows where the satellite is in the earth's shadow,  

DLR